{"data":{"norad_id":66158,"intl_designator":"2025-240N","name":"STARLINK-35587","alt_names":[],"object_type":"PAYLOAD","status":"ACTIVE","operator":null,"country":"US","launch_date":"2025-10-25","launch_site_code":"AFWTR","launch_vehicle":null,"mission":null,"orbit_class":"UNKNOWN","rcs_meters":null,"size_class":null,"mass_kg":null,"dimensions":null,"purposes":["comms"],"wikipedia_slug":null,"has_3d_model":false,"image_url":null,"decayed_at":null,"tle_current":{"epoch":"2026-09-20T22:46:45.111072Z","epoch_age_seconds":61620,"freshness":"FRESH","line1":"1 66158U 25240N   26263.94913323  .00010007  00000+0  30685-3 0  9994","line2":"2 66158  53.1572 233.7224 0000975  67.7653 292.3453 15.34404021 51917","mean_motion":15.34404021,"eccentricity":9.75e-5,"inclination_deg":53.1572,"raan_deg":233.7224,"arg_perigee_deg":67.7653,"mean_anomaly_deg":292.3453,"bstar":0.00030685,"rev_number":5191,"period_min":93.847512147519,"perigee_km":462.02430821564,"apogee_km":463.35826973199,"semimajor_km":6840.8282889738,"source":"CELESTRAK","updated_at":"2026-09-21T09:00:35.814760Z"}}}